sat.trackr.live / text

‹ back to catalog

STARLINK-5422

NORAD 54804 · 2022-175AY

PAYLOAD ACTIVE UNKNOWN

§ Identity

Operator
Country
US
Launch date
2022-12-17
Launch site
AFETR
Launch vehicle
Mass (kg)
RCS (m²)

Purposes: comms

External: N2YO · Heavens-Above · Gunter

§ Orbital elements

Epoch: 2026-09-20T11:53:40.319520Z

Period
93.85 min
Inclination
53.1596°
Eccentricity
0.0001107
Mean motion
15.34392687 rev/d
Perigee alt
462.0 km
Apogee alt
463.5 km
Semi-major
6,840.9 km
B*
2.2596e-5
RAAN
217.4539°
Arg perigee
95.9952°
Mean anomaly
264.1177°
Rev number
20,977

§ Raw data

STARLINK-54221 54804U 22175AY  26263.49560555  .00000387  00000+0  22596-4 0  99912 54804  53.1596 217.4539 0001107  95.9952 264.1177 15.34392687209772

JSON: /api/v1/satellites/54804 · /tle

For live sub-satellite position, see the globe view (requires WebGL).

§ Visibility from observer

Set your observer location to see the next 7 days of passes ≥ 10°. The values pass through the URL so the page stays shareable.

No JS? Fill the form by hand. The geolocation button needs JavaScript.